"Period start","avg(HW err(1)/warn(2) (#))","avg(Visibility (m))","avg(Weather code (#))","avg(Precip intensity (mm/h))","min(HW err(1)/warn(2) (#))","max(HW err(1)/warn(2) (#))","std(HW err(1)/warn(2) (#))","med(HW err(1)/warn(2) (#))","min(Visibility (m))","max(Visibility (m))","std(Visibility (m))","med(Visibility (m))","min(Weather code (#))","max(Weather code (#))","std(Weather code (#))","med(Weather code (#))","min(Precip intensity (mm/h))","max(Precip intensity (mm/h))","std(Precip intensity (mm/h))","med(Precip intensity (mm/h))"
2017-11-16 00:00:00,2,4584,73,0.07,2,2,0,2,3885,5958,597,4383,71,77,3,71,0.05,0.15,0.03,0.05
2017-11-16 00:10:00,2,4561,78,0.07,2,2,0,2,3349,5340,680,4712,77,78,0,78,0.00,0.15,0.04,0.05
2017-11-16 00:20:00,2,3982,75,0.08,2,2,0,2,3202,4844,588,3880,71,77,3,77,0.00,0.25,0.06,0.05
2017-11-16 00:30:00,2,3452,77,0.07,2,2,0,2,2776,3903,348,3548,77,77,0,77,0.05,0.10,0.03,0.08
2017-11-16 00:40:00,2,4399,78,0.04,2,2,0,2,3640,5091,420,4348,77,78,0,78,0.00,0.10,0.03,0.05
2017-11-16 00:50:00,2,4710,78,0.01,2,2,0,2,3958,5354,416,4786,78,78,0,78,0.00,0.05,0.02,0.00
2017-11-16 01:00:00,2,4665,78,0.00,2,2,0,2,3969,6543,800,4370,77,78,0,78,0.00,0.00,0.00,0.00
2017-11-16 01:10:00,2,4638,77,0.01,2,2,0,2,2075,6816,1498,4822,77,77,0,77,0.00,0.05,0.02,0.00
2017-11-16 01:20:00,2,2090,78,0.07,2,2,0,2,1551,3098,494,1862,77,78,0,78,0.05,0.10,0.02,0.05
2017-11-16 01:30:00,2,3005,78,0.01,2,2,0,2,2455,3304,252,3094,78,78,0,78,0.00,0.05,0.02,0.00
2017-11-16 01:40:00,2,3656,78,0.01,2,2,0,2,3144,4537,488,3495,78,78,0,78,0.00,0.05,0.02,0.00
2017-11-16 01:50:00,2,3795,78,0.01,2,2,0,2,2964,4577,413,3741,78,78,0,78,0.00,0.05,0.02,0.00
2017-11-16 02:00:00,2,3184,78,0.04,2,2,0,2,2479,4177,517,3212,78,78,0,78,0.00,0.10,0.03,0.05
2017-11-16 02:10:00,2,3292,78,0.04,2,2,0,2,2354,4363,562,3357,77,78,0,78,0.00,0.10,0.04,0.05
2017-11-16 02:20:00,2,2798,78,0.05,2,2,0,2,2110,3337,452,2933,78,78,0,78,0.00,0.10,0.03,0.05
2017-11-16 02:30:00,2,2246,78,0.08,2,2,0,2,1915,2541,202,2248,77,78,0,78,0.05,0.15,0.03,0.08
2017-11-16 02:40:00,2,2510,77,0.05,2,2,0,2,2236,2811,159,2512,77,78,0,77,0.05,0.05,0.00,0.05
2017-11-16 02:50:00,2,2156,77,0.19,2,2,0,2,1893,2405,180,2191,77,78,0,77,0.05,0.30,0.08,0.20
2017-11-16 03:00:00,2,1808,77,0.33,2,2,0,2,1717,1943,72,1798,77,78,0,77,0.20,0.50,0.08,0.33
2017-11-16 03:10:00,2,1907,78,0.17,2,2,0,2,1774,2064,96,1914,78,78,0,78,0.10,0.25,0.05,0.15
2017-11-16 03:20:00,2,2047,78,0.20,2,2,0,2,1870,2200,109,2048,77,78,0,78,0.10,0.45,0.09,0.15
2017-11-16 03:30:00,2,1835,75,0.25,2,2,0,2,1670,2115,129,1817,71,78,3,77,0.15,0.50,0.11,0.20
2017-11-16 03:40:00,2,1964,78,0.24,2,2,0,2,1699,2150,124,1984,78,78,0,78,0.20,0.30,0.03,0.25
2017-11-16 03:50:00,2,2171,77,0.18,2,2,0,2,1961,2494,155,2168,77,78,0,77,0.10,0.30,0.08,0.17
2017-11-16 04:00:00,2,2358,78,0.13,2,2,0,2,2155,2488,97,2376,78,78,0,78,0.10,0.20,0.03,0.12
2017-11-16 04:10:00,2,2338,78,0.14,2,2,0,2,2200,2583,117,2307,77,78,0,78,0.10,0.25,0.05,0.15
2017-11-16 04:20:00,2,2222,77,0.24,2,2,0,2,1963,2420,155,2242,77,78,0,77,0.15,0.35,0.05,0.25
2017-11-16 04:30:00,2,2144,73,0.26,2,2,0,2,1930,2306,118,2182,71,77,3,71,0.15,0.35,0.07,0.30
2017-11-16 04:40:00,2,2188,71,0.31,2,2,0,2,1963,2383,133,2203,71,71,0,71,0.20,0.40,0.07,0.30
2017-11-16 04:50:00,2,2315,76,0.19,2,2,0,2,2087,2611,163,2342,71,77,2,77,0.10,0.25,0.05,0.20
2017-11-16 05:00:00,2,2376,77,0.20,2,2,0,2,2077,2670,177,2338,77,77,0,77,0.10,0.35,0.07,0.20
2017-11-16 05:10:00,2,2340,77,0.17,2,2,0,2,2158,2599,147,2340,77,77,0,77,0.05,0.25,0.06,0.20
2017-11-16 05:20:00,2,3012,77,0.08,2,2,0,2,2483,3802,417,2900,77,77,0,77,0.05,0.15,0.03,0.08
2017-11-16 05:30:00,2,3037,77,0.06,2,2,0,2,2605,3678,343,3001,77,78,0,77,0.05,0.10,0.02,0.05
2017-11-16 05:40:00,2,2510,77,0.17,2,2,0,2,2200,2958,251,2395,77,78,0,77,0.05,0.35,0.10,0.15
2017-11-16 05:50:00,2,2534,77,0.12,2,2,0,2,2351,2729,124,2542,77,77,0,77,0.05,0.20,0.05,0.10
2017-11-16 06:00:00,2,2200,78,0.17,2,2,0,2,1963,2447,169,2218,77,78,0,78,0.10,0.25,0.06,0.17
2017-11-16 06:10:00,2,1884,78,0.25,2,2,0,2,1724,2116,115,1886,77,78,0,78,0.20,0.35,0.06,0.23
2017-11-16 06:20:00,2,2155,77,0.13,2,2,0,2,1774,2579,222,2193,77,77,0,77,0.05,0.20,0.05,0.12
2017-11-16 06:30:00,2,2064,75,0.21,2,2,0,2,1847,2269,135,2052,71,77,3,77,0.05,0.60,0.17,0.17
2017-11-16 06:40:00,2,1334,71,0.72,2,2,0,2,1054,1841,244,1288,71,71,0,71,0.30,1.10,0.26,0.70
2017-11-16 06:50:00,2,1274,72,0.67,2,2,0,2,1087,1591,161,1222,71,77,2,71,0.25,1.15,0.25,0.68
2017-11-16 07:00:00,2,1282,73,0.76,2,2,0,2,1143,1443,107,1233,71,77,3,71,0.30,1.15,0.26,0.78
2017-11-16 07:10:00,2,1079,71,0.93,2,2,0,2,995,1139,46,1098,71,71,0,71,0.70,1.20,0.13,0.92
2017-11-16 07:20:00,2,1220,71,0.76,2,2,0,2,1064,1377,100,1216,71,71,0,71,0.35,1.10,0.18,0.78
2017-11-16 07:30:00,2,1620,71,0.28,2,2,0,2,1386,1964,175,1570,71,71,0,71,0.10,0.55,0.13,0.23
2017-11-16 07:40:00,2,1644,73,0.29,2,2,0,2,1215,1974,207,1658,71,77,3,71,0.10,0.45,0.12,0.30
2017-11-16 07:50:00,2,1402,71,0.59,2,2,0,2,1148,1536,110,1423,71,71,0,71,0.35,0.90,0.15,0.60
2017-11-16 08:00:00,2,1383,71,0.55,2,2,0,2,1203,1668,140,1358,71,71,0,71,0.30,0.90,0.18,0.50
2017-11-16 08:10:00,2,1343,71,0.54,2,2,0,2,1243,1417,53,1356,71,71,0,71,0.40,0.70,0.10,0.53
2017-11-16 08:20:00,2,1209,71,0.89,2,2,0,2,797,1523,238,1242,71,71,0,71,0.30,1.50,0.42,0.78
2017-11-16 08:30:00,2,1047,71,1.36,2,2,0,2,848,1298,155,1022,71,71,0,71,0.70,2.15,0.44,1.48
2017-11-16 08:40:00,2,1038,71,1.15,2,2,0,2,901,1269,127,1013,71,71,0,71,0.85,1.60,0.26,1.08
2017-11-16 08:50:00,2,1040,71,1.55,2,2,0,2,909,1213,113,1017,71,71,0,71,1.20,2.05,0.30,1.45
2017-11-16 09:00:00,2,775,71,2.50,2,2,0,2,674,905,71,760,71,72,0,71,1.90,3.55,0.43,2.40
2017-11-16 09:10:00,2,810,72,2.31,2,2,0,2,608,1033,127,764,71,72,0,72,1.30,3.45,0.68,2.28
2017-11-16 09:20:00,2,799,71,2.31,2,2,0,2,655,906,68,802,71,71,0,71,1.85,2.95,0.34,2.25
2017-11-16 09:30:00,2,854,71,1.58,2,2,0,2,773,983,61,850,71,71,0,71,1.20,2.10,0.25,1.58
2017-11-16 09:40:00,2,720,71,2.83,2,2,0,2,593,823,91,742,71,72,0,71,1.60,4.60,1.10,2.75
2017-11-16 09:50:00,2,531,72,5.39,2,2,0,2,423,611,56,540,72,72,0,72,3.70,7.45,1.04,5.47
2017-11-16 10:00:00,2,584,72,5.44,2,2,0,2,496,689,46,584,72,72,0,72,3.25,7.50,1.30,5.50
2017-11-16 10:10:00,2,752,72,2.71,2,2,0,2,586,903,90,764,71,72,0,72,2.00,3.70,0.59,2.52
2017-11-16 10:20:00,2,998,71,1.30,2,2,0,2,906,1195,84,983,71,71,0,71,0.95,2.30,0.39,1.20
2017-11-16 10:30:00,2,1056,71,0.95,2,2,0,2,885,1269,106,1063,71,71,0,71,0.65,1.20,0.19,0.97
2017-11-16 10:40:00,2,1078,71,0.89,2,2,0,2,803,1367,188,1065,71,71,0,71,0.35,1.40,0.36,0.83
2017-11-16 10:50:00,2,1028,71,1.55,2,2,0,2,728,1373,201,1030,71,71,0,71,0.45,2.80,0.74,1.38
2017-11-16 11:00:00,2,798,71,2.46,2,2,0,2,611,1066,130,796,71,72,0,71,1.50,3.65,0.68,2.28
2017-11-16 11:10:00,2,748,72,2.85,2,2,0,2,594,893,103,716,71,72,0,72,1.75,3.50,0.54,2.88
2017-11-16 11:20:00,2,740,72,3.71,2,2,0,2,591,962,105,738,71,72,0,72,3.20,4.50,0.46,3.72
2017-11-16 11:30:00,2,780,71,3.74,2,2,0,2,617,955,101,756,71,72,0,71,2.40,4.65,0.68,3.93
2017-11-16 11:40:00,2,817,71,2.33,2,2,0,2,654,1007,112,801,71,72,0,71,1.65,3.65,0.54,2.28
2017-11-16 11:50:00,2,661,72,4.44,2,2,0,2,572,764,64,666,71,72,0,72,2.40,5.90,0.91,4.52
2017-11-16 12:00:00,2,942,71,2.44,2,2,0,2,704,1174,160,931,71,72,0,71,0.75,5.70,1.62,2.08
2017-11-16 12:10:00,2,956,71,1.24,2,2,0,2,810,1213,108,968,71,71,0,71,0.85,1.75,0.31,1.12
2017-11-16 12:20:00,2,946,71,1.09,2,2,0,2,759,1184,120,936,71,71,0,71,0.60,1.50,0.24,1.05
2017-11-16 12:30:00,2,1018,71,0.84,2,2,0,2,923,1185,78,989,71,71,0,71,0.45,1.15,0.19,0.88
2017-11-16 12:40:00,2,969,71,0.70,2,2,0,2,727,1245,153,984,71,71,0,71,0.50,1.20,0.23,0.60
2017-11-16 12:50:00,2,799,71,1.43,2,2,0,2,602,1044,136,795,71,71,0,71,0.75,2.00,0.38,1.35
2017-11-16 13:00:00,2,723,71,1.74,2,2,0,2,596,828,66,728,71,72,0,71,1.15,2.25,0.37,1.77
2017-11-16 13:10:00,2,717,72,1.58,2,2,0,2,632,792,48,726,72,72,0,72,1.10,2.00,0.25,1.62
2017-11-16 13:20:00,2,681,72,1.76,2,2,0,2,511,841,91,675,72,72,0,72,1.35,2.25,0.30,1.73
2017-11-16 13:30:00,2,676,72,2.08,2,2,0,2,466,1174,203,610,71,72,0,72,0.75,3.65,0.80,1.77
2017-11-16 13:40:00,2,931,71,0.88,2,2,0,2,631,1394,223,894,71,72,0,71,0.35,1.30,0.29,0.90
2017-11-16 13:50:00,2,971,71,0.81,2,2,0,2,690,1134,167,1037,71,71,0,71,0.20,2.35,0.58,0.65
2017-11-16 14:00:00,2,934,76,0.70,2,2,0,2,728,1180,144,900,71,77,2,77,0.35,1.05,0.20,0.68
2017-11-16 14:10:00,2,858,73,0.81,2,2,0,2,598,1007,131,908,71,77,3,71,0.50,1.10,0.21,0.80
2017-11-16 14:20:00,2,804,73,0.89,2,2,0,2,646,875,63,818,71,77,3,71,0.55,1.40,0.23,0.88
2017-11-16 14:30:00,2,846,71,0.90,2,2,0,2,690,1073,120,836,71,71,0,71,0.55,1.35,0.25,0.83
2017-11-16 14:40:00,2,980,75,0.58,2,2,0,2,824,1209,132,970,71,77,3,77,0.25,0.85,0.21,0.57
2017-11-16 14:50:00,2,996,73,0.57,2,2,0,2,744,1225,140,1015,71,77,3,71,0.30,0.90,0.17,0.57
2017-11-16 15:00:00,2,855,72,0.78,2,2,0,2,653,1101,118,846,71,77,2,71,0.40,1.15,0.20,0.78
2017-11-16 15:10:00,2,906,71,0.70,2,2,0,2,671,1238,178,880,71,71,0,71,0.25,1.55,0.35,0.62
2017-11-16 15:20:00,2,1118,76,0.38,2,2,0,2,901,1450,160,1082,71,77,2,77,0.25,0.55,0.09,0.35
2017-11-16 15:30:00,2,1280,75,0.33,2,2,0,2,1080,1373,80,1298,71,77,3,77,0.25,0.45,0.07,0.33
2017-11-16 15:40:00,2,1163,75,0.37,2,2,0,2,848,1460,160,1172,71,77,3,77,0.20,0.75,0.15,0.33
2017-11-16 15:50:00,2,1207,77,0.30,2,2,0,2,980,1555,172,1160,77,77,0,77,0.10,0.45,0.12,0.30
2017-11-16 16:00:00,2,1354,74,0.24,2,2,0,2,1138,1608,142,1332,71,77,3,74,0.10,0.45,0.10,0.23
2017-11-16 16:10:00,2,1371,74,0.35,2,2,0,2,931,1849,275,1322,71,77,3,74,0.10,0.70,0.18,0.30
2017-11-16 16:20:00,2,1262,76,0.24,2,2,0,2,847,1770,279,1226,71,77,2,77,0.10,0.55,0.14,0.17
2017-11-16 16:30:00,2,1308,76,0.45,2,2,0,2,799,2086,420,1281,71,77,2,77,0.10,0.90,0.31,0.45
2017-11-16 16:40:00,2,1388,71,0.57,2,2,0,2,1023,2010,272,1378,71,71,0,71,0.40,0.75,0.11,0.57
2017-11-16 16:50:00,2,1046,71,0.76,2,2,0,2,808,1512,190,1036,71,71,0,71,0.50,0.95,0.17,0.83
2017-11-16 17:00:00,2,1098,71,0.69,2,2,0,2,905,1446,157,1062,71,71,0,71,0.30,1.05,0.21,0.75
2017-11-16 17:10:00,2,1115,71,0.71,2,2,0,2,966,1260,88,1127,71,71,0,71,0.45,1.00,0.16,0.73
2017-11-16 17:20:00,2,1318,71,0.52,2,2,0,2,894,1548,174,1310,71,71,0,71,0.25,0.80,0.21,0.50
2017-11-16 17:30:00,2,1347,71,0.44,2,2,0,2,1178,1554,113,1335,71,71,0,71,0.25,0.70,0.13,0.45
2017-11-16 17:40:00,2,1596,73,0.22,2,2,0,2,1354,1916,181,1608,71,77,3,71,0.10,0.40,0.10,0.23
2017-11-16 17:50:00,2,1564,73,0.29,2,2,0,2,1197,2321,307,1495,71,77,3,71,0.20,0.35,0.06,0.30
2017-11-16 18:00:00,2,1314,75,0.33,2,2,0,2,1132,1563,125,1318,71,77,3,77,0.15,0.50,0.10,0.33
2017-11-16 18:10:00,2,1134,74,0.49,2,2,0,2,963,1383,125,1152,71,77,3,74,0.30,0.75,0.15,0.45
2017-11-16 18:20:00,2,1088,73,0.58,2,2,0,2,805,1504,212,1052,71,77,3,71,0.30,1.25,0.25,0.55
2017-11-16 18:30:00,2,1133,71,0.48,2,2,0,2,914,1317,104,1142,71,71,0,71,0.30,0.75,0.16,0.42
2017-11-16 18:40:00,2,1099,72,0.62,2,2,0,2,936,1388,144,1050,71,77,2,71,0.40,0.80,0.12,0.62
2017-11-16 18:50:00,2,1100,77,0.54,2,2,0,2,970,1255,91,1075,77,77,0,77,0.35,0.85,0.15,0.55
2017-11-16 19:00:00,2,1155,77,0.54,2,2,0,2,950,1501,177,1151,77,77,0,77,0.20,1.00,0.29,0.55
2017-11-16 19:10:00,2,1138,75,0.53,2,2,0,2,1085,1297,57,1126,71,77,3,77,0.40,0.70,0.10,0.55
2017-11-16 19:20:00,2,1221,77,0.51,2,2,0,2,1132,1396,84,1212,77,77,0,77,0.20,0.75,0.15,0.55
2017-11-16 19:30:00,2,1376,75,0.42,2,2,0,2,1172,1577,114,1353,71,77,3,77,0.20,0.55,0.10,0.45
2017-11-16 19:40:00,2,1405,76,0.29,2,2,0,2,1226,1622,139,1408,71,77,2,77,0.15,0.55,0.11,0.28
2017-11-16 19:50:00,2,1411,71,0.27,2,2,0,2,1142,1623,143,1366,71,71,0,71,0.10,0.45,0.09,0.25
2017-11-16 20:00:00,2,1146,75,0.61,2,2,0,2,975,1289,85,1148,71,77,3,77,0.20,0.90,0.20,0.62
2017-11-16 20:10:00,2,968,71,0.90,2,2,0,2,883,1051,59,952,71,71,0,71,0.70,1.10,0.13,0.90
2017-11-16 20:20:00,2,964,71,0.94,2,2,0,2,861,1062,62,967,71,71,0,71,0.75,1.20,0.12,0.92
2017-11-16 20:30:00,2,916,71,1.26,2,2,0,2,824,1071,75,902,71,71,0,71,0.95,1.55,0.16,1.27
2017-11-16 20:40:00,2,880,71,1.31,2,2,0,2,731,1009,80,894,71,71,0,71,0.90,2.05,0.37,1.25
2017-11-16 20:50:00,2,765,71,2.74,2,2,0,2,679,880,57,750,71,72,0,71,2.10,3.55,0.53,2.60
2017-11-16 21:00:00,2,864,71,2.35,2,2,0,2,654,1026,124,846,71,72,0,71,1.60,2.95,0.37,2.42
2017-11-16 21:10:00,2,776,71,2.86,2,2,0,2,612,977,114,790,71,72,0,71,1.55,4.80,0.94,2.58
2017-11-16 21:20:00,2,872,71,3.67,2,2,0,2,652,1194,144,882,71,72,0,71,2.25,6.40,1.13,3.45
2017-11-16 21:30:00,2,914,71,4.35,2,2,0,2,641,1163,166,956,71,72,0,71,2.45,6.85,1.42,4.70
2017-11-16 21:40:00,2,975,71,3.69,2,2,0,2,817,1142,105,954,71,71,0,71,1.95,4.80,0.76,3.67
2017-11-16 21:50:00,2,1221,71,3.38,2,2,0,2,824,1792,344,1102,71,71,0,71,0.60,7.95,2.20,3.35
2017-11-16 22:00:00,2,1726,71,1.16,2,2,0,2,1378,2278,247,1695,71,71,0,71,0.50,2.15,0.47,1.12
2017-11-16 22:10:00,2,1479,71,0.87,2,2,0,2,1232,1857,197,1396,71,71,0,71,0.60,1.25,0.23,0.85
2017-11-16 22:20:00,2,1076,71,1.61,2,2,0,2,901,1282,118,1068,71,71,0,71,0.85,2.55,0.47,1.55
2017-11-16 22:30:00,2,1040,71,2.49,2,2,0,2,830,1276,126,1023,71,71,0,71,1.75,3.55,0.66,2.15
2017-11-16 22:40:00,2,1219,71,1.51,2,2,0,2,976,1415,121,1224,71,71,0,71,1.00,2.00,0.34,1.45
2017-11-16 22:50:00,2,1003,71,2.01,2,2,0,2,894,1232,99,1002,71,71,0,71,1.45,2.65,0.38,2.00
2017-11-16 23:00:00,2,1241,71,0.99,2,2,0,2,967,1517,167,1216,71,71,0,71,0.45,1.40,0.28,1.00
2017-11-16 23:10:00,2,1525,71,1.11,2,2,0,2,1220,2096,270,1426,71,71,0,71,0.65,1.85,0.32,1.05
2017-11-16 23:20:00,2,1644,71,0.71,2,2,0,2,1435,1910,161,1602,71,71,0,71,0.40,1.00,0.20,0.70
2017-11-16 23:30:00,2,1720,71,0.78,2,2,0,2,1158,2036,273,1786,71,71,0,71,0.35,1.80,0.43,0.57
2017-11-16 23:40:00,2,1692,71,0.76,2,2,0,2,1370,2065,232,1616,71,71,0,71,0.35,1.10,0.20,0.75
2017-11-16 23:50:00,2,2005,71,0.43,2,2,0,2,1673,2258,157,2020,71,71,0,71,0.25,0.90,0.17,0.38
